Simultaneous Nadir Overpasses (SNOs) Predictions

Prediction of SNOs between AQUA and NOAA-19 Satellite Orbit:

Table of predicted SNOs for the next 14.0 days since TLE Epoch: 10/22/2016
Index Date (AQUA) Time (AQUA) Lat,Lon (AQUA) SZA (AQUA ) Date (NOAA-19) Time (NOAA-19) Lat,Lon (NOAA-19) SZA (NOAA-19 ) Distance(km) Time Diff (sec)
1 10/22/2016 13:48:05 80.93, -67.23 93.94 10/22/2016 13:47:32 80.93, -67.07 93.94 2.81 33
2 10/22/2016 14:37:31 -80.92, 100.43 86.06 10/22/2016 14:38:28 -80.92, 100.51 86.09 1.42 57
3 10/24/2016 19:21:50 -80.94, 29.22 85.29 10/24/2016 19:21:27 -80.93, 29.21 85.28 0.24 23
4 10/24/2016 20:11:08 80.69,-160.09 94.25 10/24/2016 20:12:22 80.85,-159.73 94.33 18.70 74
5 10/27/2016 00:55:35 80.93, 125.89 95.45 10/27/2016 00:55:30 80.93, 125.72 95.48 3.14 5
6 10/29/2016 06:29:20 -80.94,-137.70 83.79 10/29/2016 06:29:23 -80.93,-137.52 83.81 3.20 3
7 10/31/2016 12:03:05 80.94, -41.19 96.94 10/31/2016 12:03:27 80.94, -41.29 96.94 1.78 22
8 11/02/2016 16:47:23 80.94,-112.29 97.64 11/02/2016 16:46:25 80.94,-112.26 97.66 0.64 58
9 11/02/2016 17:36:49 -80.93, 55.53 82.38 11/02/2016 17:37:19 -80.93, 55.66 82.40 2.40 30
10 11/04/2016 22:21:07 -80.93, -15.59 81.70 11/04/2016 22:20:18 -80.94, -15.74 81.66 2.75 49




NCC Satellite Simultaneous Nadir Overpasses (SNOs) Prediction Service
